World > North America > United States > Ohio > Hunting Valley

Hourly Hunting Valley, OH Regional Weather

Feedback E-mail the Weather

Quick WX

Hunting Valley, OH Weather Maps

°F °C°F °C
Hunting Valley Weather Map
UTC Time: 8/13/2022, 06:51
Your Time:

Hunting Valley, OH Regional Weather

Expires:202208130700;;009245
ASUS41 KCLE 130610
RWRCLE
OHIO REGIONAL WEATHER ROUNDUP
NATIONAL WEATHER SERVICE CLEVELAND, OH
200 AM EDT SAT AUG 13 2022

NOTE: "FAIR" INDICATES FEW OR NO CLOUDS BELOW 12,000 FEET WITH NO
SIGNIFICANT WEATHER AND/OR OBSTRUCTIONS TO VISIBILITY.


OHZ009>014-019>023-028>033-038-089-130700-
   NORTHEAST OHIO
  
CITY           SKY/WX    TMP DP  RH WIND       PRES   REMARKS
CLE-HOPKINS    CLEAR     58  51  78 CALM      30.18S                  
CLE-LAKEFRONT  CLEAR     64  52  64 S6        30.18S                  
CUY CO. ARPT   CLEAR     53  51  90 CALM      30.21F                  
LORAIN-ELYRIA  CLEAR     54  51  90 CALM      30.20F                  
ASHTABULA      CLEAR     52  50  93 E3        30.20S                  
AKRON-CANTON   PTCLDY    60  48  64 NE6       30.20S                  
WOOSTER        CLEAR     51  50  96 CALM      30.21S                  
MANSFIELD      CLEAR     56  52  86 CALM      30.20F                  
YOUNGSTOWN     PTCLDY    55  49  80 CALM      30.20S                  
$$


SKY/WX - Weather  TMP - Temperature  DP - Dew Point  RH - Humidity
WIND - Wind Direction/Speed PRES - Barometric Pressure VSB - Visibility
WCI - Wind Chill Index E13G22 Wind - East Wind 13 mph/Gusts of 22 mph

Trending Headlines

Hunting Valley Radar Loop



Hunting Valley Quick Facts


National Two Day Weather Forecast


E-mail the Hunting Valley Weather Forecast

Voice your opinion or tell us about page issues...